Погода в Черняховске

Погода в Черняховске : погода сейчас, прогноз погоды и архив. Всё, что Вы хотите узнать о погоде в Черняховске!

Хотите узнать прогноз погоды в Черняховске? Тогда Вам сюда: Погода в Черняховске

Поиск расширенной информации на нашем сайте:

Другие новости

Новости СМИ2

Главная страница сайта

Новости сайта

03.07.2017

Напоминаем, что на нашем специализированном сайте Метеоцентр.Азия вы можете получить высокодетализированные автоматические прогнозы погоды по пунктам России, СНГ и мира в авиационном формате (включающие направление и скорость ветра, видимость, явления погоды, количество и форму облачности, нижнюю и верхнюю границу облачности).


Погода в Черняховске - сегодня

Время (UTC), дата Ветер
(°,м/с) 
Видим.   Явления Облачность Т
(°С)
Тd
(°С)
f(%) Тe
(°С)
Pmin
(гПа)
dP
(гПа)
Po
(мм)
O2
(г/м3)
Тmin Tmax R s Состояние
почвы
00 07.02.18 190 (Ю) 2-5{07}  н/о    н/о 
-4.7 -6.2 89 -6  1019.5  0.9  762  313           
03 07.02.18 200 (Ю) 3-6{08}  н/о    н/о 
-5.6 -7.3 88 -8  1020.1  0.6  762  314  -5.6         
06 07.02.18 190 (Ю) 2-4{06}  4000 м  дымка  1/0 верхняя 
[Ci fib]
-7.4 -8.6 91 -9  1021  0.8  763  317  -7.4      <0.5  равномерный
сухой снег
100% 
09 07.02.18 190 (Ю) 1-4{04}  н/о    н/о 
-3.4 -6.9 77 -3  1021.6  0.7  763  312           
12 07.02.18 170 (Ю) 2-4{05}  н/о    н/о 
-0.4 -8.6 54 -1  1021.4  0.1  763  309           
15 07.02.18 130 (ЮВ) 1-3{05}  н/о    н/о 
-2.4 -10.2 55 -2  1020.8  -0.6  763  311           
18 07.02.18 120 (ЮВ) 2-4{05}  4000 м  дымка  ясно 
-4.2 -9.3 68 -5  1020.7  -0.2  762  313    -0.2       
21 07.02.18 110 (В) 1-3{04}  н/о    н/о 
-6.4 -9 82 -6  1020.6  0.1  762  316           
00 08.02.18 080 (В) 1-2{03}  н/о    н/о 
-7.5 -9.2 88 -7  1020.7  0.1  762  317           
03 08.02.18 100 (В) 1-2{02}  н/о    н/о 
-8.1 -9.1 92 -8  1020.1  -0.6  762  317  -8.1         
06 08.02.18 140 (ЮВ) 1-2{04}  2000 м  дымка  10/0 средняя 
[As op]
-6.4 -6.9 96 -6  1020.3  0.2  762  315  -8.2      <0.5  сухой снег
50-90% 
09 08.02.18 020 (С) 1-2{02}  н/о    н/о 
-5.7 -6.1 97 -5  1020.7  0.4  762  314           
12 08.02.18 360 (С) 2-3{03}  н/о    н/о 
-3.7 -4.6 93 -5  1020.9  0.1  763  312           
15 08.02.18 040 (СВ) 2-3{04}  н/о    н/о 
-4.2 -5.4 91 -5  1021  -0.1  763  313           
18 08.02.18 010 (С) 2-4{04}  4000 м  дымка  10/10 600 м 
[Sc]
-4 -5.4 90 -5  1021.5  0.5  763  313    -3.6       
21 08.02.18 030 (СВ) 2-3{05}  н/о    н/о 
-4.7 -6.1 90 -6  1021.9  0.4  763  314           
00 09.02.18 070 (В) 1-3{03}  н/о    н/о 
-5.6 -6.6 93 -5  1022  0.1  763  315           
03 09.02.18 020 (С) 1-2{03}  н/о    н/о 
-6.4 -6.9 96 -6  1022.1  0.1  764  316  -6.4         
06 09.02.18 350 (С) 1-2{03}  1000 м  дымка  10/10 300 м 
[St]
-6.8 -7.3 96 -6  1022.1  764  316  -6.8      <0.5  сухой снег
50-90% 
09 09.02.18 040 (СВ) 1-2{03}  н/о    н/о 
-5.6 -6 97 -5  1022.2  0.1  764  315           
12 09.02.18 030 (СВ) 2-3{05}  н/о    н/о 
-4.1 -4.7 96 -5  1021.6  -0.6  763  313           
15 09.02.18 080 (В) 1-3{03}  н/о    н/о 
-3.3 -4.3 93 -3  1021.1  -0.5  763  312           
18 09.02.18 070 (В) 1-3{04}  4000 м  дымка  10/10 300 м 
[Sc]
-3.4 -4.9 89 -3  1021  -0.1  763  312    -3       
15 16.02.18 190 (Ю) 1-3{05}  н/о    н/о 
-0.9 -2 92 1019.1  0.1  761  308           
09 22.02.18 030 (СВ) 2-3{03}  н/о    н/о 
-9 -11.2 84 -11  1030.4  0.7  770  322           
Время (UTC), дата Ветер
(°,м/с) 
Видим.   Явления Облачность Т
(°С)
Тd
(°С)
f(%) Тe
(°С)
Pmin
(гПа)
dP
(гПа)
Po
(мм)
O2
(г/м3)
Тmin Tmax R s Состояние
почвы

Для получения пояснительной информации подведите курсор к названию столбца.

ПОГОДА в Черняховске - архив

Всё, что Вы хотите узнать о погоде в Черняховске - удобно и подробно!

Выберите нужную дату (начиная с 1 января 2015* года) и нажмите кнопку "Найти".
Будут отображены архивные сводки погоды по пункту Черняховск, начиная с указанной даты.


Отображать данные в формате CSV (для использования в таблицах Excel)


Внимание! Наш архив погоды предназначен исключительно для личного некоммерческого использования в познавательных целях. Если Вам необходимы официальные справки о состоянии погоды (для производственных, юридических, коммерческих и т.п. целей), обращайтесь в органы Росгидромета.

*Примечание: данная дата относится к архиву по метеостанциям СССР (Россия, СНГ, Балтия).
Архив по метеостанциям Зарубежной Европы и Азии (кроме Китая) хранится 10 дней, по другим регионам земного шара (Китай, Африка, Америка, Австралия, Океания) - 1 день.

Черняховск - район местоположения метеостанции


Название, широта, долгота, высота метеостанции:
Черняховск 54.8°ш. 21.7°д. 25 м над ур. моря [Российская Федерация]

Дополнительная информация

В oтличие oт бoльшинства пoгoдных сайтoв мы публикуем пoдрoбную метеoинфoрмацию в детальнoм прoфессиoнальнoм фoрмате.

Характеристики температуры и влажнoсти вoздуха измеряются на высoте 2 м в тени вдали oт зданий и деревьев.
Скoрoсть ветра измеряется на высoте 10 м (на урoвне рoста челoвека скoрoсть ветра ниже в 1.5-2 раза). Если метеoстанция нахoдится в гoрoде или в лесу, тo скoрoсть ветра занижена на 2-4 м/с пo сравнению с oткрытым местoм. Скoрoсть ветра над акватoриями крупных рек и oзёр, а также на вершинах хoлмoв на 2-5 м/с выше, чем в oбычных услoвиях.
Атмoсфернoе давление в разных тoчках местнoсти мoжет значительнo oтличаться oт давления на метеoстанции, в зависимoсти oт услoвий рельефа (при пoдъёме на 10 м давление пoнижается примернo на 1 мм рт.ст.).